sat.trackr.live / text

‹ back to catalog

STARLINK-30963

NORAD 58444 · 2023-183H

PAYLOAD ACTIVE UNKNOWN

§ Identity

Operator
Country
US
Launch date
2023-11-28
Launch site
AFETR
Launch vehicle
Mass (kg)
RCS (m²)

Purposes: comms

External: N2YO · Heavens-Above · Gunter

§ Orbital elements

Epoch: 2026-05-24T17:04:43.174848Z

Period
94.27 min
Inclination
43.0033°
Eccentricity
0.0001341
Mean motion
15.27586472 rev/d
Perigee alt
482.1 km
Apogee alt
483.9 km
Semi-major
6,861.2 km
B*
3.6786e-6
RAAN
332.0505°
Arg perigee
271.7265°
Mean anomaly
88.3433°
Rev number
13,836

§ Raw data

STARLINK-309631 58444U 23183H   26144.71161082 -.00000161  00000+0  36786-5 0  99982 58444  43.0033 332.0505 0001341 271.7265  88.3433 15.27586472138364

JSON: /api/v1/satellites/58444 · /tle

For live sub-satellite position, see the globe view (requires WebGL).

§ Visibility from observer

Set your observer location to see the next 7 days of passes ≥ 10°. The values pass through the URL so the page stays shareable.

No JS? Fill the form by hand. The geolocation button needs JavaScript.